Tracking 28790 objects as of 19-Apr-2024
HD Live streaming from Space Station
objects crossing your sky now

CZ-6A DEB

Track CZ-6A DEB now!
10-day predictions


NORAD ID: 54309
Int'l Code: 2022-151BC
Perigee: 834.6 km
Apogee: 889.9 km
Inclination: 98.8 °
Period: 102.0 minutes
Semi major axis: 7233 km
RCS: Unknown
Launch date: November 11, 2022
Source: People's Republic of China (PRC)
Launch site: Taiyaun Space Center, China (TSC)

Note: This is SATELLITE DEBRIS
Your satellite tracking list
Your tracking list is empty




NASA's NSSDC Master Catalog

Two Line Element Set (TLE):
1 54309U 22151BC  24109.89377303  .00001428  00000-0  80988-3 0  9999
2 54309  98.8208 115.2895 0038237  38.3912 321.9969 14.11242294 73300
Source of the keplerian elements: AFSPC